EW8011 Weather Reports


Display with metric or nautical units.
time (UTC)temp
F
wind
direction
speed
MPH
gust
MPH
rain 1hr
in
rain 24hr
in
rain mn
in
humidity
%
barometer
mb
20200713142736 97 189 1.0 4.0 0.00 0.00 0.00 28 1011.7
20200713142236 96 193 0.0 4.0 0.00 0.00 0.00 28 1011.6
20200713141736 97 175 2.0 3.0 0.00 0.00 0.00 28 1011.6
20200713141236 97 197 1.0 3.0 0.00 0.00 0.00 27 1011.6
20200713140736 98 123 0.0 1.0 0.00 0.00 0.00 26 1011.4
20200713140235 97 123 0.0 1.0 0.00 0.00 0.00 27 1011.1
20200713135735 98 123 0.0 1.0 0.00 0.00 0.00 28 1011.1
20200713135235 98 123 0.0 0.0 0.00 0.00 0.00 27 1011.0
20200713134735 97 123 0.0 0.0 0.00 0.00 0.00 28 1010.9
20200713134235 96 123 0.0 0.0 0.00 0.00 0.00 30 1010.9
20200713133735 95 123 0.0 0.0 0.00 0.00 0.00 28 1010.9
20200713133234 95 123 0.0 0.0 0.00 0.00 0.00 29 1010.9
20200713132735 94 123 0.0 2.0 0.00 0.00 0.00 28 1010.8
20200713132235 94 124 0.0 2.0 0.00 0.00 0.00 27 1010.6
20200713131734 94 100 0.0 2.0 0.00 0.00 0.00 28 1010.7
20200713131235 93 100 0.0 2.0 0.00 0.00 0.00 28 1010.6
20200713130734 92 100 0.0 0.0 0.00 0.00 0.00 30 1010.5
20200713130235 92 100 0.0 0.0 0.00 0.00 0.00 29 1010.5
20200713125734 92 100 0.0 1.0 0.00 0.00 0.00 29 1010.5
20200713125234 92 100 0.0 1.0 0.00 0.00 0.00 29 1010.4
20200713124734 92 120 0.0 3.0 0.00 0.00 0.00 29 1010.4
20200713124235 92 120 0.0 3.0 0.00 0.00 0.00 29 1010.4
20200713123735 92 93 0.0 2.0 0.00 0.00 0.00 29 1010.3
20200713123233 91 76 0.0 2.0 0.00 0.00 0.00 30 1010.2
20200713122733 91 24 1.0 2.0 0.00 0.00 0.00 30 1009.9
20200713122234 92 16 0.0 1.0 0.00 0.00 0.00 29 1009.9
20200713121733 92 16 0.0 2.0 0.00 0.00 0.00 29 1009.8
20200713121233 92 16 1.0 2.0 0.00 0.00 0.00 29 1009.9
20200713120733 92 17 0.0 1.0 0.00 0.00 0.00 29 1009.8
20200713120233 92 17 0.0 2.0 0.00 0.00 0.00 29 1009.7
20200713115733 93 17 0.0 2.0 0.00 0.00 0.00 28 1009.6
20200713115234 93 35 0.0 2.0 0.00 0.00 0.00 28 1009.5
20200713114732 93 13 0.0 2.0 0.00 0.00 0.00 28 1009.5
20200713114232 94 13 0.0 2.0 0.00 0.00 0.00 28 1009.4
20200713113733 94 13 0.0 2.0 0.00 0.00 0.00 28 1009.4
20200713113233 94 10 0.0 2.0 0.00 0.00 0.00 28 1009.5
20200713112732 94 10 1.0 1.0 0.00 0.00 0.00 28 1009.5
20200713112232 94 10 1.0 2.0 0.00 0.00 0.00 27 1009.4
20200713111732 95 10 0.0 2.0 0.00 0.00 0.00 27 1009.3
20200713111234 95 8 1.0 2.0 0.00 0.00 0.00 27 1009.3
20200713110732 95 8 0.0 3.0 0.00 0.00 0.00 27 1009.3
20200713110232 95 10 0.0 3.0 0.00 0.00 0.00 27 1009.3
20200713105732 96 4 1.0 2.0 0.00 0.00 0.00 27 1009.3
20200713105232 96 11 0.0 4.0 0.00 0.00 0.00 27 1009.3
20200713104731 96 32 2.0 4.0 0.00 0.00 0.00 26 1009.2
20200713104231 96 47 2.0 4.0 0.00 0.00 0.00 27 1009.1
20200713103731 96 41 2.0 4.0 0.00 0.00 0.00 27 1009.2
20200713103231 96 28 1.0 4.0 0.00 0.00 0.00 27 1009.2
20200713102731 96 30 1.0 6.0 0.00 0.00 0.00 26 1009.3
20200713102232 96 20 2.0 6.0 0.00 0.00 0.00 27 1009.1
20200713101736 96 272 2.0 6.0 0.00 0.00 0.00 27 1009.1
20200713101231 97 44 2.0 6.0 0.00 0.00 0.00 27 1009.0
20200713100731 97 18 3.0 9.0 0.00 0.00 0.00 27 1009.0
20200713100231 97 49 2.0 9.0 0.00 0.00 0.00 27 1009.1
20200713095730 97 0 2.0 7.0 0.00 0.00 0.00 27 1009.0
20200713095231 97 42 2.0 10.0 0.00 0.00 0.00 27 1009.0
20200713094731 97 217 3.0 10.0 0.00 0.00 0.00 27 1008.9
20200713094230 97 24 2.0 5.0 0.00 0.00 0.00 27 1008.9
20200713093731 97 298 1.0 3.0 0.00 0.00 0.00 27 1008.9
20200713093230 97 20 1.0 5.0 0.00 0.00 0.00 27 1008.8
20200713092730 97 45 2.0 5.0 0.00 0.00 0.00 27 1008.8
20200713091230 97 47 2.0 4.0 0.00 0.00 0.00 26 1008.4
20200713090729 97 55 1.0 4.0 0.00 0.00 0.00 26 1008.2
20200713090229 98 27 2.0 3.0 0.00 0.00 0.00 26 1008.3
20200713085729 98 30 1.0 3.0 0.00 0.00 0.00 25 1008.2
20200713085229 98 25 2.0 3.0 0.00 0.00 0.00 25 1008.2
20200713084729 98 34 1.0 4.0 0.00 0.00 0.00 24 1008.1
20200713084229 98 17 3.0 4.0 0.00 0.00 0.00 24 1008.1
20200713083729 98 8 1.0 2.0 0.00 0.00 0.00 23 1008.2
20200713083228 98 7 0.0 2.0 0.00 0.00 0.00 23 1008.1
20200713082728 99 1 1.0 3.0 0.00 0.00 0.00 23 1008.0
20200713082230 99 7 1.0 5.0 0.00 0.00 0.00 22 1008.0
20200713081728 99 20 1.0 5.0 0.00 0.00 0.00 22 1008.0
20200713081229 100 17 1.0 3.0 0.00 0.00 0.00 22 1008.0
20200713080729 100 45 1.0 3.0 0.00 0.00 0.00 22 1007.9
20200713080228 100 14 1.0 4.0 0.00 0.00 0.00 22 1007.9
20200713075729 100 3 2.0 4.0 0.00 0.00 0.00 21 1007.9
20200713075228 100 6 1.0 3.0 0.00 0.00 0.00 22 1007.9
20200713074728 100 4 1.0 3.0 0.00 0.00 0.00 22 1007.7
20200713074228 100 27 1.0 3.0 0.00 0.00 0.00 22 1007.7
20200713073728 100 17 1.0 2.0 0.00 0.00 0.00 22 1007.7
20200713073228 100 16 1.0 2.0 0.00 0.00 0.00 22 1007.9
20200713072728 99 14 1.0 2.0 0.00 0.00 0.00 22 1007.7
20200713072227 99 16 1.0 1.0 0.00 0.00 0.00 23 1007.7
20200713071727 99 14 0.0 1.0 0.00 0.00 0.00 23 1007.7
20200713071227 100 14 0.0 1.0 0.00 0.00 0.00 22 1007.9
20200713070727 100 14 0.0 1.0 0.00 0.00 0.00 22 1007.9
20200713070227 100 14 0.0 1.0 0.00 0.00 0.00 22 1007.9
20200713065727 100 16 0.0 1.0 0.00 0.00 0.00 22 1007.9
20200713065227 101 16 1.0 1.0 0.00 0.00 0.00 22 1007.9
20200713064727 101 16 0.0 1.0 0.00 0.00 0.00 22 1007.9
20200713064227 101 16 0.0 1.0 0.00 0.00 0.00 22 1007.9
20200713063727 101 16 0.0 1.0 0.00 0.00 0.00 22 1007.9
20200713063227 101 16 0.0 1.0 0.00 0.00 0.00 22 1007.9
20200713062725 101 16 1.0 1.0 0.00 0.00 0.00 22 1007.9
20200713062226 100 16 0.0 2.0 0.00 0.00 0.00 22 1007.9
20200713061727 100 16 0.0 2.0 0.00 0.00 0.00 22 1007.9
20200713061226 100 14 0.0 1.0 0.00 0.00 0.00 22 1007.9
20200713060727 100 14 0.0 0.0 0.00 0.00 0.00 22 1007.9
20200713060226 101 14 0.0 0.0 0.00 0.00 0.00 22 1007.7
20200713055726 101 14 0.0 1.0 0.00 0.00 0.00 21 1007.7
20200713055226 102 14 0.0 1.0 0.00 0.00 0.00 21 1007.7
20200713054728 102 14 0.0 2.0 0.00 0.00 0.00 21 1007.6
20200713054224 103 14 0.0 2.0 0.00 0.00 0.00 21 1007.5
20200713053725 103 1 0.0 1.0 0.00 0.00 0.00 20 1007.6
20200713053225 103 1 0.0 2.0 0.00 0.00 0.00 20 1007.7
20200713052726 104 1 0.0 2.0 0.00 0.00 0.00 20 1007.7
20200713052225 103 10 1.0 2.0 0.00 0.00 0.00 20 1007.6
20200713051725 103 20 1.0 2.0 0.00 0.00 0.00 20 1007.7
20200713051225 103 164 0.0 2.0 0.00 0.00 0.00 20 1007.6
20200713050725 103 162 1.0 2.0 0.00 0.00 0.00 20 1007.5
20200713050224 103 121 0.0 2.0 0.00 0.00 0.00 20 1007.4
20200713045725 104 42 0.0 4.0 0.00 0.00 0.00 20 1007.3
20200713045225 104 42 1.0 4.0 0.00 0.00 0.00 20 1007.2
20200713044726 104 27 1.0 2.0 0.00 0.00 0.00 20 1007.1
20200713044225 104 17 0.0 2.0 0.00 0.00 0.00 20 1007.0
20200713043724 105 17 1.0 2.0 0.00 0.00 0.00 19 1006.9
20200713043224 105 17 1.0 2.0 0.00 0.00 0.00 19 1006.9
20200713042724 105 1 1.0 2.0 0.00 0.00 0.00 19 1006.8
20200713042224 105 1 1.0 2.0 0.00 0.00 0.00 19 1006.7
20200713041724 105 8 0.0 2.0 0.00 0.00 0.00 20 1006.8
20200713041224 105 8 0.0 2.0 0.00 0.00 0.00 20 1006.6
20200713040723 105 0 0.0 1.0 0.00 0.00 0.00 20 1006.6
20200713040223 105 0 0.0 1.0 0.00 0.00 0.00 20 1006.7
20200713035724 105 0 1.0 1.0 0.00 0.00 0.00 19 1006.6
20200713035224 105 0 0.0 1.0 0.00 0.00 0.00 19 1006.6
20200713034723 106 0 1.0 1.0 0.00 0.00 0.00 19 1006.5
20200713034224 106 0 0.0 1.0 0.00 0.00 0.00 19 1006.5
20200713033723 106 0 0.0 1.0 0.00 0.00 0.00 19 1006.4
20200713033223 106 0 0.0 1.0 0.00 0.00 0.00 19 1006.4
20200713032723 107 0 0.0 1.0 0.00 0.00 0.00 19 1006.4
20200713032223 107 0 0.0 1.0 0.00 0.00 0.00 19 1006.4
20200713031725 107 0 0.0 1.0 0.00 0.00 0.00 19 1006.4
20200713031223 107 0 0.0 1.0 0.00 0.00 0.00 19 1006.3
20200713030723 107 0 0.0 1.0 0.00 0.00 0.00 18 1006.3
20200713030223 108 0 0.0 1.0 0.00 0.00 0.00 18 1006.3
20200713025724 108 0 0.0 2.0 0.00 0.00 0.00 18 1006.2
20200713025222 108 0 1.0 3.0 0.00 0.00 0.00 18 1006.2
20200713024723 109 37 1.0 3.0 0.00 0.00 0.00 18 1006.0
20200713024222 109 3 1.0 3.0 0.00 0.00 0.00 18 1005.9
20200713023723 109 6 0.0 2.0 0.00 0.00 0.00 17 1006.0
20200713023222 110 25 1.0 2.0 0.00 0.00 0.00 17 1005.8
20200713022722 110 17 1.0 3.0 0.00 0.00 0.00 17 1005.8
20200713022221 110 54 1.0 3.0 0.00 0.00 0.00 17 1005.8
20200713021721 110 21 1.0 3.0 0.00 0.00 0.00 17 1005.8
20200713021221 110 24 1.0 5.0 0.00 0.00 0.00 17 1005.7
20200713020721 111 16 1.0 7.0 0.00 0.00 0.00 17 1005.7
20200713020221 111 254 2.0 7.0 0.00 0.00 0.00 16 1005.7
20200713015721 111 17 1.0 4.0 0.00 0.00 0.00 16 1005.8
20200713015222 111 21 1.0 4.0 0.00 0.00 0.00 16 1005.8
20200713014721 111 300 1.0 5.0 0.00 0.00 0.00 16 1005.8
20200713014221 112 25 1.0 7.0 0.00 0.00 0.00 16 1005.8
20200713013721 112 272 2.0 7.0 0.00 0.00 0.00 16 1005.8
20200713013221 112 25 2.0 5.0 0.00 0.00 0.00 16 1005.7
20200713012721 113 32 2.0 5.0 0.00 0.00 0.00 16 1005.7
20200713012221 113 48 2.0 6.0 0.00 0.00 0.00 16 1005.8
20200713011720 113 292 2.0 6.0 0.00 0.00 0.00 16 1005.7
20200713011220 113 289 2.0 6.0 0.00 0.00 0.00 16 1005.8
20200713010720 114 47 1.0 5.0 0.00 0.00 0.00 16 1005.8
20200713010220 114 279 2.0 5.0 0.00 0.00 0.00 16 1005.8
20200713005720 114 21 1.0 7.0 0.00 0.00 0.00 16 1005.8
20200713005220 114 14 2.0 7.0 0.00 0.00 0.00 16 1005.8
20200713004720 114 27 2.0 4.0 0.00 0.00 0.00 16 1005.8
20200713004220 114 285 2.0 7.0 0.00 0.00 0.00 15 1005.8
20200713003720 115 28 3.0 7.0 0.00 0.00 0.00 15 1005.8
20200713003219 115 14 1.0 5.0 0.00 0.00 0.00 15 1005.6
20200713002719 116 34 2.0 6.0 0.00 0.00 0.00 15 1005.7
20200713002219 116 30 2.0 6.0 0.00 0.00 0.00 15 1005.7
20200713001719 116 59 2.0 6.0 0.00 0.00 0.00 15 1005.7
20200713001219 116 21 2.0 6.0 0.00 0.00 0.00 15 1005.7
20200713000720 116 41 3.0 6.0 0.00 0.00 0.00 15 1005.7
20200713000219 115 51 1.0 4.0 0.00 0.00 0.00 15 1005.8
20200712235719 115 80 2.0 7.0 0.00 0.00 0.00 15 1005.9
20200712235218 115 66 2.0 7.0 0.00 0.00 0.00 15 1006.0
20200712234718 115 83 3.0 7.0 0.00 0.00 0.00 15 1006.1
20200712234218 115 45 3.0 7.0 0.00 0.00 0.00 15 1006.2
20200712233719 116 10 3.0 6.0 0.00 0.00 0.00 14 1006.2
20200712233219 116 27 2.0 5.0 0.00 0.00 0.00 15 1006.2
20200712232718 116 23 2.0 5.0 0.00 0.00 0.00 14 1006.4
20200712232219 115 10 2.0 5.0 0.00 0.00 0.00 14 1006.5
20200712231718 115 94 3.0 4.0 0.00 0.00 0.00 14 1006.5
20200712231217 116 44 2.0 7.0 0.00 0.00 0.00 15 1006.6
20200712230718 116 52 3.0 7.0 0.00 0.00 0.00 15 1006.7
20200712230219 116 24 2.0 5.0 0.00 0.00 0.00 15 1006.7
20200712225717 115 13 2.0 6.0 0.00 0.00 0.00 15 1006.9
20200712225218 116 8 3.0 6.0 0.00 0.00 0.00 15 1006.9
20200712224717 116 16 2.0 7.0 0.00 0.00 0.00 15 1006.9
20200712224218 116 8 2.0 7.0 0.00 0.00 0.00 15 1007.0
20200712223716 116 35 2.0 9.0 0.00 0.00 0.00 16 1007.2
20200712223216 115 25 3.0 9.0 0.00 0.00 0.00 16 1007.1
20200712222717 116 48 2.0 6.0 0.00 0.00 0.00 16 1007.1
20200712222218 114 303 1.0 7.0 0.00 0.00 0.00 16 1007.2
20200712221717 115 31 3.0 7.0 0.00 0.00 0.00 16 1007.4
20200712221217 115 39 3.0 7.0 0.00 0.00 0.00 17 1007.3
20200712220717 114 211 2.0 9.0 0.00 0.00 0.00 17 1007.5
20200712220216 114 7 3.0 9.0 0.00 0.00 0.00 17 1007.6
20200712215716 114 264 2.0 7.0 0.00 0.00 0.00 17 1007.7
20200712215216 114 213 1.0 9.0 0.00 0.00 0.00 16 1007.9
20200712214717 115 193 2.0 9.0 0.00 0.00 0.00 17 1007.9
20200712214217 115 152 2.0 6.0 0.00 0.00 0.00 17 1007.9
20200712213716 115 54 1.0 5.0 0.00 0.00 0.00 17 1008.0
20200712213216 114 199 1.0 5.0 0.00 0.00 0.00 17 1008.2
20200712212716 114 185 2.0 7.0 0.00 0.00 0.00 18 1008.3
20200712212216 113 162 3.0 7.0 0.00 0.00 0.00 17 1008.3
20200712211716 114 183 3.0 6.0 0.00 0.00 0.00 18 1008.4
20200712211215 113 123 1.0 6.0 0.00 0.00 0.00 19 1008.5
20200712210715 113 219 3.0 6.0 0.00 0.00 0.00 18 1008.5
20200712210215 113 173 2.0 4.0 0.00 0.00 0.00 19 1008.6
20200712205715 113 61 1.0 4.0 0.00 0.00 0.00 19 1008.6
20200712205215 112 185 1.0 4.0 0.00 0.00 0.00 19 1008.6
20200712204715 112 178 2.0 7.0 0.00 0.00 0.00 20 1008.8
20200712204215 112 159 2.0 7.0 0.00 0.00 0.00 20 1008.9
20200712203714 112 173 3.0 7.0 0.00 0.00 0.00 19 1009.0
20200712203214 112 130 2.0 5.0 0.00 0.00 0.00 19 1009.1
20200712202714 112 75 3.0 5.0 0.00 0.00 0.00 19 1009.2
20200712202214 111 58 1.0 4.0 0.00 0.00 0.00 21 1009.2
20200712201714 111 171 2.0 4.0 0.00 0.00 0.00 21 1009.4
20200712201214 111 113 2.0 6.0 0.00 0.00 0.00 20 1009.5
20200712200714 110 133 3.0 6.0 0.00 0.00 0.00 21 1009.5
20200712200214 110 76 1.0 4.0 0.00 0.00 0.00 21 1009.6
20200712195714 110 189 2.0 4.0 0.00 0.00 0.00 21 1009.7
20200712195214 109 164 2.0 4.0 0.00 0.00 0.00 22 1009.7
20200712194714 109 159 1.0 6.0 0.00 0.00 0.00 22 1009.9
20200712194213 109 213 3.0 6.0 0.00 0.00 0.00 22 1010.0
20200712193713 110 175 2.0 6.0 0.00 0.00 0.00 22 1010.0
20200712193214 110 172 3.0 5.0 0.00 0.00 0.00 21 1010.2
20200712192713 110 168 1.0 3.0 0.00 0.00 0.00 23 1010.4
20200712192213 109 169 2.0 4.0 0.00 0.00 0.00 22 1010.4
20200712191713 109 162 1.0 5.0 0.00 0.00 0.00 23 1010.5
20200712191213 108 147 2.0 5.0 0.00 0.00 0.00 23 1010.6
20200712190713 108 152 2.0 5.0 0.00 0.00 0.00 22 1010.7
20200712190214 108 110 2.0 5.0 0.00 0.00 0.00 22 1010.8
20200712185712 108 47 2.0 4.0 0.00 0.00 0.00 23 1011.0
20200712185213 108 55 1.0 5.0 0.00 0.00 0.00 22 1011.0
20200712184712 108 207 1.0 5.0 0.00 0.00 0.00 23 1011.1
20200712184212 107 157 2.0 4.0 0.00 0.00 0.00 23 1011.1
20200712183713 106 189 0.0 3.0 0.00 0.00 0.00 24 1011.2
20200712183213 106 102 2.0 6.0 0.00 0.00 0.00 24 1011.3
20200712182712 106 141 2.0 6.0 0.00 0.00 0.00 24 1011.4
20200712182212 105 130 2.0 4.0 0.00 0.00 0.00 24 1011.4
20200712181712 105 165 0.0 3.0 0.00 0.00 0.00 25 1011.4
20200712181210 105 125 1.0 4.0 0.00 0.00 0.00 25 1011.4
20200712180712 105 204 1.0 4.0 0.00 0.00 0.00 25 1011.5
20200712180211 105 30 2.0 4.0 0.00 0.00 0.00 25 1011.5
20200712175712 105 220 2.0 4.0 0.00 0.00 0.00 25 1011.6
20200712175211 105 61 0.0 4.0 0.00 0.00 0.00 26 1011.5
20200712174711 105 144 2.0 7.0 0.00 0.00 0.00 26 1011.6
20200712174211 105 189 1.0 7.0 0.00 0.00 0.00 25 1011.6
20200712173711 105 27 2.0 6.0 0.00 0.00 0.00 24 1011.7
20200712173210 106 48 2.0 6.0 0.00 0.00 0.00 25 1011.6
20200712172710 105 85 1.0 6.0 0.00 0.00 0.00 25 1011.6
20200712172210 104 134 1.0 3.0 0.00 0.00 0.00 26 1011.6
20200712171711 104 55 1.0 4.0 0.00 0.00 0.00 26 1011.7
20200712171211 103 86 2.0 4.0 0.00 0.00 0.00 27 1011.8
20200712170710 103 49 2.0 4.0 0.00 0.00 0.00 27 1011.8
20200712170211 102 107 0.0 3.0 0.00 0.00 0.00 27 1011.8
20200712165710 102 220 1.0 3.0 0.00 0.00 0.00 27 1011.8
20200712165210 102 147 2.0 3.0 0.00 0.00 0.00 28 1012.0
20200712164710 102 157 1.0 5.0 0.00 0.00 0.00 28 1012.0
20200712164210 101 21 2.0 5.0 0.00 0.00 0.00 29 1012.0
20200712163710 101 35 3.0 5.0 0.00 0.00 0.00 29 1012.2
20200712163210 100 69 2.0 5.0 0.00 0.00 0.00 29 1012.1
20200712162709 100 20 2.0 5.0 0.00 0.00 0.00 29 1012.1
20200712162210 100 65 1.0 2.0 0.00 0.00 0.00 30 1012.1
20200712161709 100 144 1.0 2.0 0.00 0.00 0.00 30 1012.2
20200712161209 99 76 1.0 3.0 0.00 0.00 0.00 30 1012.2
20200712160709 99 23 2.0 3.0 0.00 0.00 0.00 30 1012.3
20200712160209 98 28 1.0 2.0 0.00 0.00 0.00 31 1012.3
20200712155709 98 32 1.0 2.0 0.00 0.00 0.00 31 1012.3
20200712155209 99 125 0.0 1.0 0.00 0.00 0.00 31 1012.3
20200712154710 98 35 0.0 1.0 0.00 0.00 0.00 31 1012.2
20200712154209 98 159 0.0 1.0 0.00 0.00 0.00 32 1012.2
20200712153708 98 168 0.0 1.0 0.00 0.00 0.00 31 1012.2
20200712153209 97 172 0.0 2.0 0.00 0.00 0.00 31 1012.3
20200712152710 97 182 1.0 2.0 0.00 0.00 0.00 33 1012.3
20200712152208 97 206 0.0 2.0 0.00 0.00 0.00 33 1012.2
20200712151708 96 197 0.0 2.0 0.00 0.00 0.00 33 1012.3
20200712151208 96 202 0.0 1.0 0.00 0.00 0.00 33 1012.3
20200712150708 96 202 0.0 1.0 0.00 0.00 0.00 33 1012.2
20200712150208 97 161 0.0 1.0 0.00 0.00 0.00 33 1012.2
20200712145707 97 157 0.0 1.0 0.00 0.00 0.00 33 1012.3
20200712145208 97 157 0.0 1.0 0.00 0.00 0.00 32 1012.3
20200712144708 97 157 0.0 1.0 0.00 0.00 0.00 32 1012.2
20200712144207 96 157 0.0 1.0 0.00 0.00 0.00 33 1012.3
20200712143709 96 158 0.0 1.0 0.00 0.00 0.00 33 1012.2
20200712143208 96 158 0.0 1.0 0.00 0.00 0.00 33 1012.1